TimeMDT,TemperatureF,Dew PointF,Humidity,Sea Level PressureIn,VisibilityMPH,Wind Direction,Wind SpeedMPH,Gust SpeedMPH,PrecipitationIn,Events,Conditions,WindDirDegrees,DateUTC
12:53 AM,64.9,33.1,31,29.97,10.0,West,15.0,-,N/A,,Clear,270,2013-07-15 06:53:00
1:53 AM,63.0,34.0,34,29.97,10.0,WSW,5.8,-,N/A,,Clear,250,2013-07-15 07:53:00
2:53 AM,62.1,34.0,35,29.97,10.0,Calm,Calm,-,N/A,,Clear,0,2013-07-15 08:53:00
3:53 AM,61.0,34.0,36,29.97,10.0,Calm,Calm,-,N/A,,Clear,0,2013-07-15 09:53:00
4:53 AM,57.0,34.0,42,29.98,10.0,Calm,Calm,-,N/A,,Clear,0,2013-07-15 10:53:00
5:53 AM,55.9,35.1,45,29.98,10.0,Calm,Calm,-,N/A,,Clear,0,2013-07-15 11:53:00
6:53 AM,59.0,37.9,46,29.97,10.0,Calm,Calm,-,N/A,,Clear,0,2013-07-15 12:53:00
7:53 AM,59.0,37.9,46,29.98,10.0,NNE,3.5,-,N/A,,Clear,30,2013-07-15 13:53:00
8:53 AM,64.9,37.0,36,29.98,10.0,Calm,Calm,-,N/A,,Clear,0,2013-07-15 14:53:00
9:53 AM,70.0,39.0,32,29.96,10.0,Calm,Calm,-,N/A,,Clear,0,2013-07-15 15:53:00
10:53 AM,75.9,44.1,32,29.94,10.0,Variable,3.5,-,N/A,,Clear,0,2013-07-15 16:53:00
11:53 AM,81.0,41.0,24,29.92,10.0,ENE,6.9,-,N/A,,Clear,70,2013-07-15 17:53:00
12:53 PM,86.0,45.0,24,29.88,10.0,Variable,5.8,-,N/A,,Clear,0,2013-07-15 18:53:00
1:53 PM,91.0,41.0,17,29.84,10.0,NNE,10.4,-,N/A,,Clear,30,2013-07-15 19:53:00
2:53 PM,91.9,36.0,14,29.83,10.0,Variable,4.6,-,N/A,,Clear,0,2013-07-15 20:53:00
3:53 PM,95.0,28.9,10,29.81,10.0,WSW,12.7,23.0,N/A,,Clear,250,2013-07-15 21:53:00
4:53 PM,93.9,28.0,10,29.81,10.0,West,19.6,26.5,N/A,,Clear,270,2013-07-15 22:53:00
5:53 PM,95.0,28.0,9,29.80,10.0,NW,15.0,20.7,N/A,,Clear,310,2013-07-15 23:53:00
6:53 PM,91.9,32.0,12,29.82,10.0,NNW,18.4,-,N/A,,Clear,340,2013-07-16 00:53:00
7:53 PM,90.0,33.1,13,29.85,10.0,North,13.8,-,N/A,,Clear,350,2013-07-16 01:53:00
8:53 PM,75.9,48.0,37,29.94,10.0,North,17.3,28.8,N/A,,Clear,350,2013-07-16 02:53:00
9:53 PM,70.0,48.9,47,30.02,10.0,NNW,13.8,23.0,N/A,,Clear,330,2013-07-16 03:53:00
10:53 PM,66.0,48.0,52,30.07,10.0,NNW,13.8,20.7,N/A,,Clear,340,2013-07-16 04:53:00
11:53 PM,64.0,46.9,54,30.10,10.0,NNW,12.7,20.7,N/A,,Clear,330,2013-07-16 05:53:00